星链-31836 (STARLINK-31836 )

导读 | 星芒AI

STARLINK-31836 是 SpaceX Starlink 卫星互联网项目中的一颗低轨卫星,属于第6批部署的星链卫星之一。该卫星于2022年5月4日由猎鹰9号火箭发射升空,运行在约550公里高的近地轨道,旨在为全球用户提供高速互联网服务。Starlink 项目计划部署数千颗卫星,以构建覆盖全球的宽带网络,尤其服务于偏远地区。STARLINK-31836 采用先进通信技术,具备高带宽和低延迟特性,是实现全球互联网接入目标的重要组成部分。

基本信息
目录编号:
59724
目录名称:
STARLINK-31836
国际标识:
2024-088S
轨道中心:
EARTH
卫星名称:
星链-31836
卫星全名:
星链-31836 (STARLINK-31836 )
卫星状态:
在轨 (已飞行541 天)
发射日期:
2024-05-10 UTC
国别 :
美国 (US)
星等 :
--
轨道信息
数据来源 国际轨道数据
星历时间: 2025-11-01T23:04:31+0800
19小时前
查看轨道信息
半长轴: 6853.374km
偏心率: 0.0001192
轨道倾角: 53.161°
近地点辐角 112.851°
升交点赤经 14.865°
平近点角 247.262°
近地点: 474.422km
远地点: 476.056km
周期: 94.106分钟
每日圈数: 15.301928
详细信息
固有亮度:
5
最大亮度:
1.5
卫星平台:
Starlink v2.0 mini
覆盖范围:
全球
运营商:
太空探索技术公司
运营商所在国:
美国
制造商(研发单位):
太空探索技术公司
制造商所在国:
美国
使用方式:
暂无
卫星简介
星链(Starlink)计划是由太空探索技术公司(SpaceX)提出的一个巨型低轨卫星互联网星座项目,计划在2019年至2024年间在太空搭建由约1.2万颗卫星组成的“星链”网络,其中1584颗将部署在地球上空550千米处的近地轨道,并从2020年开始工作。该卫星仍在工作。
2D轨道图
3D轨道图
轨道高度分析图
轨道倾角分析图
轨道综合分析图
查看轨道综合分析图